Regional Weather Roundup
Issued by NWS Northern Indiana

Home | Current Version | Previous Version | Text Only | Print | Product List | Glossary Off
Versions: 1 2 3 4 5 6 7 8 9 10 11 12 13 14 15 16 17 18 19 20 21 22 23 24 25 26 27 28 29 30 31 32 33 34 35 36 37 38 39 40 41 42 43 44 45 46 47 48 49 50

000
ASUS43 KIWX 270000
RWRIWX

KIWX WEATHER ROUNDUP
NATIONAL WEATHER SERVICE NORTHERN INDIANA
700 PM EST THU FEB 26 2015

NOTE: "FAIR" INDICATES FEW OR NO CLOUDS BELOW 12,000 FEET WITH NO
SIGNIFICANT WEATHER AND/OR OBSTRUCTIONS TO VISIBILITY.

* THESE STATIONS ARE NOT UNDER NWS QUALITY CONTROL. THEY ALSO MAY NOT
  REPORT WEATHER SUCH AS PRECIPITATION OR FOG.

INZ001>027-270100-
NORTHERN INDIANA

CITY           SKY/WX    TMP DP  RH WIND       PRES   REMARKS
GARY*          MOCLDY    18   3  53 NW12G23   30.32R WCI   5
SOUTH BEND     PTCLDY    11  -1  58 N10       30.29R WCI  -3
6HR MIN TEMP:  11; 6HR MAX TEMP:  18;

GOSHEN         CLOUDY    13  -3  49 NW10      30.25R WCI   0
6HR MIN TEMP:  13; 6HR MAX TEMP:  17;

ANGOLA*        PTCLDY    12   1  62 N3        30.21R
FORT WAYNE     FLURRIES  15   7  70 NW6       30.25R WCI   6
6HR MIN TEMP:  15; 6HR MAX TEMP:  18; 6HR PCP: TRACE;


$$
INZ028>050-270100-
CENTRAL INDIANA

CITY           SKY/WX    TMP DP  RH WIND       PRES   REMARKS
LAFAYETTE      CLEAR     13   3  64 N6        30.30R WCI   4
6HR MIN TEMP:  13; 6HR MAX TEMP:  20; 6HR PCP: TRACE;

KOKOMO*        PTCLDY    16   7  67 N10       30.27R WCI   3
6HR MIN TEMP:  16; 6HR MAX TEMP:  19;

MUNCIE*        CLOUDY    13   8  81 NW3       30.24R
6HR MIN TEMP:  13; 6HR MAX TEMP:  16; 6HR PCP: TRACE;

INDIANAPOLIS   MOCLDY    17   8  67 NW9       30.26R WCI   6
6HR MIN TEMP:  17; 6HR MAX TEMP:  21;


$$
MIZ043>046-050>051-056>058-064>065-071>073-077>080-270100-
SOUTHWEST LOWER MICHIGAN

CITY           SKY/WX    TMP DP  RH WIND       PRES   REMARKS
BATTLE CREEK   PTCLDY    11  -2  56 N5        30.25R WCI   3
6HR MIN TEMP:  11; 6HR MAX TEMP:  16; 6HR PCP: TRACE;

BENTON HARBOR  PTCLDY    12   2  64 N8G16     30.29R WCI   0
6HR MIN TEMP:  12; 6HR MAX TEMP:  14;

COLDWATER*     CLOUDY    11  -1  57 NE7       30.24R WCI   1
6HR MIN TEMP:  11; 6HR MAX TEMP:  15;

HILLSDALE*     PTCLDY    10  -1  61 N6        30.21R WCI   0
6HR MIN TEMP:  10; 6HR MAX TEMP:  15;

HOLLAND        PTCLDY    12  -6  44 CALM      30.29R
6HR MIN TEMP:  11; 6HR MAX TEMP:  16;

GRAND RAPIDS   MOCLDY    11  -6  46 NW8       30.26R WCI  -1
6HR MIN TEMP:  11; 6HR MAX TEMP:  16;

KALAMAZOO      PTCLDY    10  -5  50 NW8       30.26R WCI  -2
6HR MIN TEMP:  10; 6HR MAX TEMP:  16;

STURGIS*       PTCLDY    12   0  57 N6        30.24R WCI   3
THREE RIVERS*  FAIR      12  -5  47 N5        30.26R WCI   4
6HR MIN TEMP:  12; 6HR MAX TEMP:  16;


$$
OHZ001>008-015>018-024>025-270100-
NORTHWEST OHIO

CITY           SKY/WX    TMP DP  RH WIND       PRES   REMARKS
DEFIANCE       CLOUDY    15   4  61 N8        30.25R WCI   4
6HR MIN TEMP:  14; 6HR MAX TEMP:  17; 6HR PCP: TRACE;

FINDLAY        FLURRIES  13   6  74 NW3       30.22R
6HR MIN TEMP:  13; 6HR MAX TEMP:  16; 6HR PCP: TRACE;

TOLEDO EXPRESS CLOUDY    13   2  61 N8        30.24R WCI   2
6HR MIN TEMP:  13; 6HR MAX TEMP:  15; 6HR PCP: TRACE;

TOLEDO METCALF CLOUDY    14   5  67 NW8       30.25R WCI   3
6HR MIN TEMP:  14; 6HR MAX TEMP:  17; 6HR PCP: TRACE;

LIMA           CLOUDY    13   6  74 N3        30.22R
6HR MIN TEMP:  13; 6HR MAX TEMP:  15; 6HR PCP: TRACE;


$$
AND FOR LAKE MICHIGAN COASTAL AND OPEN LAKE BUOY OBSERVATIONS

STATION/POSITION TEMP    WIND        PRES    VSBY  WAVE
                 AIR SEA DIR/SP/G                  HT/PER
                 (F)     (DEG/KT/KT) (MB)    (MI)  (FT/S)
CALUMET HARBOR    15     330/  8/ 11 1025.1R
MICHIGAN CITY     15     360/ 16/ 20   N/A
SAINT JOSEPH      14     360/ 11/ 18 1026.1S

$$
&&



USA.gov is the U.S. government's official web portal to all federal, state and local government web resources and services.